Regional Weather Roundup
Issued by NWS

Home | Current Version | Previous Version | Graphics & Text | Print | Product List | Glossary On
Versions: 1 2 3 4 5 6 7 8 9 10 11 12 13 14 15 16 17 18 19 20 21 22 23 24 25 26 27 28 29 30 31 32 33 34 35 36 37 38 39 40 41 42 43 44 45 46 47 48 49 50
000
ASUS43 KMKX 241500
RWRWI

WISCONSIN REGIONAL WEATHER ROUNDUP
NATIONAL WEATHER SERVICE MILWAUKEE/SULLIVAN WI
1000 AM CDT MON APR 24 2017

NOTE: "FAIR" INDICATES FEW OR NO CLOUDS BELOW 12,000 FEET WITH NO
SIGNIFICANT WEATHER AND/OR OBSTRUCTIONS TO VISIBILITY.

WIZ001-002-006>008-014>016-023>028-241600-
NORTHWEST WISCONSIN

CITY           SKY/WX    TMP DP  RH WIND       PRES   REMARKS
SUPERIOR ARPT  CLOUDY    37  27  67 E13G25    29.91S WCI  28
ASHLAND        CLOUDY    40  27  59 NE10      29.92F WCI  33
HAYWARD        CLOUDY    47  33  58 S9        29.86F
SIREN          CLOUDY    49  36  62 CALM      29.83S
CUMBERLAND     PTSUNNY   45  34  65 SE10      29.85F
RICE LAKE      PTSUNNY   47  35  62 SE12      29.88F
CHETEK         PTSUNNY   47  37  67 SE9       29.88F
LADYSMITH      MOSUNNY   47  34  60 SE7       29.92S
EAU CLAIRE     NOT AVBL
MENOMONIE      SUNNY     51  39  63 E10       29.87S
NEW RICHMOND   MOSUNNY   56  38  51 SE12G17   29.82F
OSCEOLA        MOSUNNY   54  40  60 SE13      29.83F
$$

WIZ003>005-009-010-017-018-241600-
NORTH CENTRAL WISCONSIN

CITY           SKY/WX    TMP DP  RH WIND       PRES   REMARKS
MANITOWISH WTR MOSUNNY   41  29  63 SE10      29.93F
ARBOR VITAE    CLOUDY    42  30  63 S10       29.93F
WOODRUFF       CLOUDY    42  30  63 S10       29.93F
RHINELANDER    CLOUDY    45  31  58 SE7       29.95F
EAGLE RIVER    CLOUDY    39  26  61 S9        29.96S WCI  32
LAND O LAKES   CLOUDY    38  27  65 SE10      29.97F WCI  31
PHILLIPS       PTSUNNY   44  32  61 SE8       29.91F
TOMAHAWK       MOSUNNY   43  32  63 CALM      29.95F
MEDFORD        MOSUNNY   42  33  69 SE8       29.94S
MERRILL        CLOUDY    42  31  66 SE8       29.97F
$$

WIZ029-030-035-036-043>047-241600-
CENTRAL WISCONSIN

CITY           SKY/WX    TMP DP  RH WIND       PRES   REMARKS
WAUSAU         MOSUNNY   47  32  56 SE12      29.95F
MOSINEE        PTSUNNY   45  34  65 SE10      29.98F
MARSHFIELD     MOSUNNY   48  34  58 S9        29.94F
STEVENS POINT  CLOUDY    44  32  63 SE8       29.99F
WAUPACA        MOSUNNY   47  35  62 E7        30.01F
WAUTOMA        NOT AVBL
WISC RAPIDS    MOSUNNY   51  35  54 SE9       29.97F
CAMP DOUGLAS   NOT AVBL
$$

WIZ011>013-019>022-031-037>040-048>050-241600-
NORTHEAST WISCONSIN

CITY           SKY/WX    TMP DP  RH WIND       PRES   REMARKS
ANTIGO         CLOUDY    42  32  68 SE9       29.98F
SHAWANO        CLOUDY    47  37  66 SE5       30.03S
OCONTO         CLOUDY    44  36  71 E7        30.04S
STURGEON BAY   CLOUDY    49  39  68 S13       30.03F
GREEN BAY      CLOUDY    50  40  68 SE3       30.02F
MANITOWOC      NOT AVBL
APPLETON       MOSUNNY   46  34  61 E5        30.00F
CLINTONVILLE   CLOUDY    45  34  65 SE6       30.02S
OSHKOSH        MOSUNNY   54  38  54 SE6       29.99F
$$

WIZ032>034-041-042-053>061-241600-
SOUTHWEST WISCONSIN

CITY           SKY/WX    TMP DP  RH WIND       PRES   REMARKS
LA CROSSE      PTSUNNY   59  39  47 S9        29.89F
SPARTA         CLOUDY    55  37  50 S6        29.93F
VIROQUA        PTSUNNY   55  37  52 SE9       29.92F
BOSCOBEL       CLOUDY    62  32  32 S9        29.93F
PRAIRIE DU CHI PTSUNNY   60  32  35 S5        29.92F
PLATTEVILLE    MOSUNNY   61  31  32 S17       29.96F
$$

WIZ056-057-062-063-064-067-068-241600-
SOUTH CENTRAL WISCONSIN

CITY           SKY/WX    TMP DP  RH WIND       PRES   REMARKS
REEDSBURG      CLOUDY    53  38  56 SW6       29.96F
BARABOO/DELLS  CLOUDY    53  34  47 S9        29.97F
LONE ROCK      NOT AVBL
MINERAL POINT  MOSUNNY   59  34  38 SE10      29.96F
MADISON        PTSUNNY   54  37  52 S12       29.99F
MIDDLETON      MOSUNNY   56  37  49 S7        30.00S
WATERTOWN      SUNNY     55  39  54 S7        30.01S
MONROE         SUNNY     59  37  44 S9        29.99S
JANESVILLE     PTSUNNY   61  39  44 S7        29.99F
$$

WIZ051-052-058>065-066-070>072-241600-
SOUTHEAST WISCONSIN

CITY           SKY/WX    TMP DP  RH WIND       PRES   REMARKS
MILWAUKEE      MOSUNNY   53  41  63 SE6       30.03F
WAUKESHA       NOT AVBL
MILWAUKEE/TIMM SUNNY     54  34  47 SE5       30.03F
RACINE         SUNNY     52  40  63 SE5       30.04F
KENOSHA        SUNNY     56  40  55 SE5       30.02F
FOND DU LAC    MOSUNNY   58  38  47 S12       29.99F
SHEBOYGAN      CLOUDY    51  43  74 S12       30.03R
WEST BEND      SUNNY     54  37  54 S7        30.02S
JUNEAU         SUNNY     54  38  55 SE9       30.02S
$$

LSZ147-162-241600-
LAKE SUPERIOR

STATION/POSITION TIME  TEMP    WIND        PRES    WAVE
                       AIR SEA DIR/SP/G            HT/PER
                 (UTC) (F)     (DEG/KT/KT) (MB)    (FT/S)
DEVILS ISLAND    1400   35      90/ 22/ 25 1015.4F
SAXON HARBOR     1430   37      50/ 13/ 15 1013.2F
$$

LMZ867-665-643>646-241600-
LAKE MICHIGAN

STATION/POSITION TIME  TEMP    WIND        PRES    WAVE
                       AIR SEA DIR/SP/G            HT/PER
                 (UTC) (F)     (DEG/KT/KT) (MB)    (FT/S)
CHAMBERS ISLAND  1440   41      10/  8/  9 1017.3F
N MID LAKE BUOY  1350   37 37   90/ 10/ 12 1019.7R   2/ 4
NORTHPORT PIER   1440   40      90/  8/ 12 1017.9S
KEWAUNEE LAKESHO 1430   44     150/  5/  8 1016.9F
SHEBOYGAN LAKESH 1400   43     180/ 10/ 11 1017.3S
PORT WASHINGTON  1440   49     170/  4/  6 1017.9F
MILWAUKEE LAKESH 1430   45      70/  2/  3   N/A
S MID LAKE BUOY  1350   42 40   70/  8/  8 1017.8F   2/ 6
KENOSHA   LAKESH 1400   43      30/  2/  3 1017.3
$$

TC  - TEMPERATURE IN CELSIUS
VSB - VISIBILITY IN STATUTE MILES
WCI - WIND CHILL INDEX
HX  - HEAT INDEX





USA.gov is the U.S. government's official web portal to all federal, state and local government web resources and services.